Faribault, MN

8:10 PM CST on February 09, 2016 (GMT -0600)
Faribault Municipal

Weather History for KFBL - November, 2011

Change the Weather History Date:

Tuesday, November 15, 2011

  Actual Average Record
Temperature  
Mean Temperature 38 °F -  
Max Temperature 51 °F 41 °F 71 °F (1990)
Min Temperature 26 °F 25 °F 3 °F (2014)
Degree Days  
Heating Degree Days 26    
Moisture  
Dew Point 21 °F    
Average Humidity 45    
Maximum Humidity 69    
Minimum Humidity 30    
Precipitation  
Precipitation 0.00 in - - ()
Sea Level Pressure  
Sea Level Pressure 29.66 in    
Wind  
Wind Speed 8 mph (SW)    
Max Wind Speed 28 mph    
Max Gust Speed 36 mph    
Visibility 10 miles    
Events      
Averages and records for this station are not official NWS values.
T = Trace of Precipitation, MM = Missing Value Source: NWS Daily Summary

Daily Weather History Graph

Daily Weather History Graph

Search for Another Location

Airport or City:

Trip Planner

Search our weather history database for the weather conditions in past years. The results will help you decide how hot, cold, wet, or windy it might be!

Date:

Astronomy

Nov. 15, 2011 Rise Set
Actual Time 7:08 AM CST 4:46 PM CST
Civil Twilight 6:37 AM CST 5:17 PM CST
Nautical Twilight 6:02 AM CST 5:52 PM CST
Astronomical Twilight 5:28 AM CST 6:27 PM CST
Moon 8:55 PM CST (11/15) 11:09 AM CST (11/15)
Length of Visible Light 10h 40m
Length of Day
9h 37m
Waning Gibbous, 79% of the Moon is Illuminated
Nov 15
Waning Gibbous
Nov 18
Last Quarter
Nov 25
New
Dec 2
First Quarter
Dec 10
Full

Hourly Weather History & Observations

Time (CST) Temp. Windchill Dew Point Humidity Pressure Visibility Wind Dir Wind Speed Gust Speed Precip Events Conditions
12:14 AM 26.6 °F - 17.6 °F 69% 29.62 in 10.0 mi Calm Calm - N/A   Clear
12:35 AM 26.6 °F - 17.6 °F 69% 29.61 in 10.0 mi Calm Calm - N/A   Clear
12:54 AM 28.4 °F - 17.6 °F 64% 29.60 in 10.0 mi Calm Calm - N/A   Clear
1:14 AM 28.4 °F 22.2 °F 17.6 °F 64% 29.59 in 10.0 mi SSE 5.8 mph - N/A   Clear
1:34 AM 32.0 °F 27.5 °F 19.4 °F 60% 29.58 in 10.0 mi SSE 4.6 mph - N/A   Clear
1:54 AM 33.8 °F - 19.4 °F 56% 29.57 in 10.0 mi Calm Calm - N/A   Clear
2:14 AM 32.0 °F - 19.4 °F 60% 29.56 in 10.0 mi Calm Calm - N/A   Clear
2:34 AM 33.8 °F 29.6 °F 19.4 °F 56% 29.55 in 10.0 mi SSE 4.6 mph - N/A   Clear
2:54 AM 35.6 °F 32.8 °F 19.4 °F 52% 29.54 in 10.0 mi SSE 3.5 mph - N/A   Clear
3:14 AM 37.4 °F - 21.2 °F 52% 29.53 in 10.0 mi Calm Calm - N/A   Clear
3:34 AM 37.4 °F - 21.2 °F 52% 29.53 in 10.0 mi Calm Calm - N/A   Scattered Clouds
3:54 AM 39.2 °F 33.6 °F 21.2 °F 49% 29.51 in 10.0 mi SSE 8.1 mph - N/A   Mostly Cloudy
4:14 AM 44.6 °F 38.8 °F 24.8 °F 46% 29.51 in 10.0 mi South 11.5 mph - N/A   Overcast
4:34 AM 51.8 °F - 21.2 °F 30% 29.52 in 10.0 mi South 10.4 mph 18.4 mph N/A   Overcast
4:54 AM 50.0 °F - 24.8 °F 37% 29.53 in 10.0 mi South 12.7 mph 18.4 mph N/A   Overcast
5:14 AM 51.8 °F - 24.8 °F 35% 29.52 in 10.0 mi South 9.2 mph 21.9 mph N/A   Mostly Cloudy
5:34 AM 50.0 °F - 24.8 °F 37% 29.52 in 10.0 mi South 6.9 mph - N/A   Clear
5:54 AM 48.2 °F - 24.8 °F 40% 29.52 in 10.0 mi South 5.8 mph - N/A   Clear
7:14 AM 42.8 °F 37.5 °F 26.6 °F 53% 29.56 in 10.0 mi South 9.2 mph - N/A   Clear
7:34 AM 41.0 °F 36.4 °F 26.6 °F 57% 29.57 in 10.0 mi South 6.9 mph - N/A   Clear
7:54 AM 39.2 °F 35.0 °F 26.6 °F 61% 29.57 in 10.0 mi SSE 5.8 mph - N/A   Clear
8:14 AM 41.0 °F 38.0 °F 26.6 °F 57% 29.59 in 7.0 mi SSW 4.6 mph - N/A   Clear
8:54 AM 42.8 °F 37.5 °F 26.6 °F 53% 29.60 in 10.0 mi SSW 9.2 mph - N/A   Clear
9:14 AM 44.6 °F 40.7 °F 24.8 °F 46% 29.60 in 10.0 mi SW 6.9 mph - N/A   Clear
9:34 AM 44.6 °F 39.2 °F 24.8 °F 46% 29.60 in 7.0 mi WSW 10.4 mph - N/A   Clear
9:53 AM 46.4 °F 42.9 °F 24.8 °F 43% 29.60 in 10.0 mi SW 6.9 mph - N/A   Clear
10:14 AM 46.4 °F 41.9 °F 24.8 °F 43% 29.62 in 7.0 mi SW 9.2 mph - N/A   Clear
10:33 AM 48.2 °F - 24.8 °F 40% 29.62 in 10.0 mi WSW 9.2 mph - N/A   Clear
10:54 AM 46.4 °F 41.9 °F 23.0 °F 40% 29.63 in 10.0 mi SW 9.2 mph - N/A   Clear
11:14 AM 48.2 °F - 23.0 °F 37% 29.63 in 10.0 mi WSW 10.4 mph - N/A   Clear
11:34 AM 48.2 °F - 21.2 °F 34% 29.64 in 10.0 mi West 11.5 mph - N/A   Clear
11:54 AM 48.2 °F - 23.0 °F 37% 29.64 in 10.0 mi West 11.5 mph - N/A   Clear
12:13 PM 48.2 °F - 23.0 °F 37% 29.65 in 10.0 mi WSW 12.7 mph 16.1 mph N/A   Clear
12:34 PM 48.2 °F - 24.8 °F 40% 29.66 in 10.0 mi WSW 15.0 mph 19.6 mph N/A   Clear
12:54 PM 48.2 °F - 24.8 °F 40% 29.66 in 10.0 mi WSW 15.0 mph 20.7 mph N/A   Clear
1:14 PM 48.2 °F - 24.8 °F 40% 29.66 in 10.0 mi West 16.1 mph 21.9 mph N/A   Clear
1:34 PM 48.2 °F - 24.8 °F 40% 29.65 in 10.0 mi West 15.0 mph 18.4 mph N/A   Clear
1:54 PM 48.2 °F - 24.8 °F 40% 29.65 in 10.0 mi WSW 19.6 mph 24.2 mph N/A   Clear
2:14 PM 48.2 °F - 24.8 °F 40% 29.67 in 10.0 mi WSW 10.4 mph 21.9 mph N/A   Clear
2:34 PM 48.2 °F - 21.2 °F 34% 29.67 in 10.0 mi West 21.9 mph 29.9 mph N/A   Clear
2:53 PM 48.2 °F - 23.0 °F 37% 29.68 in 5.0 mi West 23.0 mph 33.4 mph N/A   Haze
3:14 PM 46.4 °F 40.4 °F 24.8 °F 43% 29.70 in 10.0 mi West 13.8 mph 29.9 mph N/A   Clear
3:34 PM 46.4 °F 38.3 °F 19.4 °F 34% 29.72 in 10.0 mi West 23.0 mph 29.9 mph N/A   Clear
3:54 PM 46.4 °F 39.2 °F 19.4 °F 34% 29.73 in 10.0 mi West 18.4 mph 32.2 mph N/A   Clear
4:14 PM 44.6 °F 37.4 °F 15.8 °F 31% 29.73 in 10.0 mi West 16.1 mph 28.8 mph N/A   Clear
4:33 PM 44.6 °F 35.9 °F 17.6 °F 34% 29.75 in 10.0 mi West 23.0 mph 28.8 mph N/A   Scattered Clouds
4:54 PM 41.0 °F 30.2 °F 15.8 °F 36% 29.77 in 10.0 mi West 27.6 mph 35.7 mph N/A   Scattered Clouds
5:14 PM 39.2 °F 30.5 °F 15.8 °F 39% 29.79 in 10.0 mi West 16.1 mph 27.6 mph N/A   Clear
5:34 PM 39.2 °F 30.5 °F 15.8 °F 39% 29.80 in 10.0 mi West 16.1 mph - N/A   Clear
5:54 PM 37.4 °F 28.5 °F 15.8 °F 41% 29.82 in 10.0 mi West 15.0 mph 23.0 mph N/A   Clear
6:14 PM 37.4 °F 28.9 °F 15.8 °F 41% 29.82 in 10.0 mi West 13.8 mph 23.0 mph N/A   Clear
6:34 PM 37.4 °F 28.9 °F 14.0 °F 38% 29.83 in 10.0 mi West 13.8 mph 23.0 mph N/A   Clear
6:53 PM 37.4 °F 29.8 °F 15.8 °F 41% 29.85 in 10.0 mi West 11.5 mph 16.1 mph N/A   Clear
7:14 PM 37.4 °F 29.8 °F 15.8 °F 41% 29.85 in 10.0 mi West 11.5 mph 17.3 mph N/A   Clear
7:34 PM 35.6 °F 27.1 °F 15.8 °F 44% 29.86 in 10.0 mi West 12.7 mph 18.4 mph N/A   Clear
7:54 PM 35.6 °F 27.1 °F 15.8 °F 44% 29.86 in 10.0 mi West 12.7 mph - N/A   Clear
8:15 PM 35.6 °F 28.0 °F 15.8 °F 44% 29.87 in 10.0 mi West 10.4 mph 19.6 mph N/A   Clear
8:34 PM 35.6 °F 26.2 °F 15.8 °F 44% 29.88 in 10.0 mi West 15.0 mph 19.6 mph N/A   Clear
8:54 PM 33.8 °F 25.3 °F 15.8 °F 48% 29.89 in 10.0 mi West 11.5 mph 24.2 mph N/A   Clear
9:13 PM 33.8 °F 24.8 °F 17.6 °F 52% 29.90 in 10.0 mi West 12.7 mph - N/A   Clear
9:34 PM 33.8 °F 22.2 °F 17.6 °F 52% 29.91 in 10.0 mi West 20.7 mph 26.5 mph N/A   Clear
9:55 PM 32.0 °F 20.5 °F 15.8 °F 51% 29.92 in 10.0 mi West 18.4 mph 27.6 mph N/A   Clear
10:14 PM 30.2 °F 18.9 °F 14.0 °F 51% 29.93 in 10.0 mi West 16.1 mph - N/A   Clear
10:34 PM 30.2 °F 20.8 °F 14.0 °F 51% 29.94 in 10.0 mi West 11.5 mph 26.5 mph N/A   Clear
10:54 PM 28.4 °F 18.5 °F 12.2 °F 51% 29.94 in 10.0 mi West 11.5 mph - N/A   Clear
11:14 PM 28.4 °F 19.1 °F 14.0 °F 55% 29.94 in 10.0 mi West 10.4 mph - N/A   Clear
11:34 PM 28.4 °F 19.1 °F 12.2 °F 51% 29.93 in 10.0 mi West 10.4 mph 16.1 mph N/A   Clear
11:54 PM 28.4 °F 20.4 °F 12.2 °F 51% 29.95 in 10.0 mi WSW 8.1 mph - N/A   Clear